Flag for United Arab Emirates Weather past 2 weeks in Dubai, Dubai, United Arab Emirates

Now
106 °F

Sunny.


Feels Like: 103 °F
Forecast: 84 / 100 °F
Wind: 18 mph from West

Location: Dubai International Airport

Current Time: May 24, 2015 at 3:30:17 PM

Latest Report: May 24, 2015 at 3:00 PM


Visibility: 10 mi

Pressure: 29.65 "Hg

Humidity: 15%

Dew point: 50 °F

Location of DubaiLocation

Historic Weather in Dubai — Graph

°F

Dubai temperature yesterday

Maximum temperature yesterday: 108 °F (at 12:00 PM)
Minimum temperature yesterday: 86 °F (at 6:00 AM)
Average temperature yesterday: 96 °F

Past Weeks' High & Low Weather Summary

 TemperatureHumidityPressure
High108 °F (May 13, 11:00 AM)84% (May 16, 5:00 AM)29.83 "Hg (May 16, 5:00 AM)
Low77 °F (May 19, 4:00 AM)7% (May 13, 11:00 AM)29.62 "Hg (May 9, 4:00 PM)
Average92 °F38%29.71 "Hg
* Reported May 9 2:00 PM — May 24 2:00 PM, Dubai, Weather by CustomWeather, © 2015

Note: Actual official high and low records may vary slightly from our data, if they occured in-between our weather recording intervals... More about our weather records

Advertising

Dubai weather history for previous 24 hours

 ConditionsComfort  
Time TempWeatherWind HumidityBarometerVisibility
2:00 PM
Sun, May 24
106 °FClear.18 mph17%29.68 "Hg5 mi
1:00 PM104 °FClear.17 mph23%29.68 "Hg4 mi
12:00 PM106 °FDuststorm.13 mph26%29.71 "Hg3 mi
11:00 AM106 °FDuststorm.14 mph22%29.71 "Hg3 mi
10:00 AM102 °FDuststorm.12 mph27%29.71 "Hg3 mi
9:00 AM99 °FDuststorm.9 mph27%29.71 "Hg3 mi
8:00 AM93 °FClear.10 mph14%29.68 "Hg5 mi
7:00 AM88 °FSunny.7 mph19%29.68 "Hg10 mi
6:00 AM88 °FSunny.2 mph19%29.65 "Hg10 mi
5:00 AM88 °FClear.3 mph22%29.65 "Hg10 mi
4:00 AM91 °FClear.3 mph18%29.62 "Hg10 mi
3:00 AM91 °FClear.5 mph20%29.62 "Hg10 mi
2:00 AM91 °FPassing clouds.3 mph23%29.65 "HgN/A
1:00 AM93 °FClear.2 mph20%29.65 "Hg10 mi
12:00 AM93 °FClear.8 mph20%29.68 "Hg10 mi
11:00 PM
Sat, May 23
95 °FClear.9 mph22%29.68 "Hg10 mi
10:00 PM97 °FPassing clouds.5 mph17%29.68 "HgN/A
9:00 PM97 °FPassing clouds.5 mph17%29.68 "HgN/A
8:00 PM99 °FPassing clouds.6 mph14%29.65 "HgN/A
7:00 PM99 °FClear.7 mph16%29.65 "Hg10 mi
6:00 PM100 °FSunny.10 mph17%29.65 "Hg10 mi
5:00 PM100 °FPassing clouds.14 mph20%29.65 "HgN/A
4:00 PM102 °FPassing clouds.13 mph16%29.68 "HgN/A
3:00 PM102 °FSunny.14 mph21%29.68 "Hg10 mi
Weather by CustomWeather, © 2015

See weather overviewHow to use our weather pages